Location: Bun Machan
(52.1403°N, 7.3744°W)
Time: 07:56:18
(UTC+00:00)

Iridium 4 Rocket - Pass Details

Date: 14 July 2020
Orbit: 583 x 906 km, 86.9° (Epoch: 04 August)

Event Time Altitude Azimuth Distance (km) Brightness Sun altitude
Exits shadow 02:03:59 19° 217° (SW) 1,944 5.0 -13.7°
Maximum altitude 02:07:45 43° 280° (W) 1,143 4.3 -13.5°
Drops below altitude 10° 02:12:47 10° 352° (N) 2,337 7.0 -13.2°
Sets 02:15:09 0° 360° (N) 3,216 8.0 -13.1°
